owner,sensor,date,latitude,longitude,vertical_datum,wind_speed,wind_to_direction,wind_speed_of_gust,qcFlag 
NDBC,ioos:station:NOAA.NDBC:SRST2:1,2014-08-01T00:00:00Z,29.6830,-94.0330,9.1,4.6,170.0,6.2,'1111122,1111122,1111122' 
NDBC,ioos:station:NOAA.NDBC:SRST2:1,2014-08-01T01:00:00Z,29.6830,-94.0330,9.1,5.7,180.0,6.7,'1111122,1111122,1111122' 
NDBC,ioos:station:NOAA.NDBC:SRST2:1,2014-08-01T02:00:00Z,29.6830,-94.0330,9.1,6.2,180.0,7.2,'1111122,1111122,1111122' 
NDBC,ioos:station:NOAA.NDBC:SRST2:1,2014-08-01T03:00:00Z,29.6830,-94.0330,9.1,5.7,170.0,7.2,'1111122,1111122,1111122' 
NDBC,ioos:station:NOAA.NDBC:SRST2:1,2014-08-01T04:00:00Z,29.6830,-94.0330,9.1,5.7,180.0,6.7,'1111122,1111122,1111122' 
NDBC,ioos:station:NOAA.NDBC:SRST2:1,2014-08-01T05:00:00Z,29.6830,-94.0330,9.1,5.1,180.0,6.2,'1111122,1111122,1111122' 
NDBC,ioos:station:NOAA.NDBC:SRST2:1,2014-08-01T07:00:00Z,29.6830,-94.0330,9.1,5.7,200.0,7.2,'1111122,1111122,1111122' 
NDBC,ioos:station:NOAA.NDBC:SRST2:1,2014-08-01T08:00:00Z,29.6830,-94.0330,9.1,4.6,190.0,5.7,'1111122,1111122,1111122' 
NDBC,ioos:station:NOAA.NDBC:SRST2:1,2014-08-01T09:00:00Z,29.6830,-94.0330,9.1,4.1,270.0,5.1,'1111122,1111122,1111122' 
NDBC,ioos:station:NOAA.NDBC:SRST2:1,2014-08-01T10:00:00Z,29.6830,-94.0330,9.1,5.1,170.0,7.7,'1111122,1111122,1111122' 
NDBC,ioos:station:NOAA.NDBC:SRST2:1,2014-08-01T11:00:00Z,29.6830,-94.0330,9.1,7.7,180.0,9.8,'1111122,1111122,1111122' 
NDBC,ioos:station:NOAA.NDBC:SRST2:1,2014-08-01T12:00:00Z,29.6830,-94.0330,9.1,4.6,160.0,6.2,'1111122,1111122,1111122' 
NDBC,ioos:station:NOAA.NDBC:SRST2:1,2014-08-01T13:00:00Z,29.6830,-94.0330,9.1,2.6,230.0,3.1,'1111122,1111122,1111122' 
NDBC,ioos:station:NOAA.NDBC:SRST2:1,2014-08-01T14:00:00Z,29.6830,-94.0330,9.1,0.5,290.0,1.5,'1111122,1111122,1111122' 
NDBC,ioos:station:NOAA.NDBC:SRST2:1,2014-08-01T15:00:00Z,29.6830,-94.0330,9.1,2.6,280.0,3.6,'1111122,1111122,1111122' 
NDBC,ioos:station:NOAA.NDBC:SRST2:1,2014-08-01T16:00:00Z,29.6830,-94.0330,9.1,2.1,270.0,3.1,'1111122,1111122,1111122' 
NDBC,ioos:station:NOAA.NDBC:SRST2:1,2014-08-01T17:00:00Z,29.6830,-94.0330,9.1,3.1,230.0,4.6,'1111122,1111122,1111122' 
NDBC,ioos:station:NOAA.NDBC:SRST2:1,2014-08-01T18:00:00Z,29.6830,-94.0330,9.1,4.1,200.0,4.6,'1111122,1111122,1111122' 
NDBC,ioos:station:NOAA.NDBC:SRST2:1,2014-08-01T19:00:00Z,29.6830,-94.0330,9.1,6.2,220.0,7.2,'1111122,1111122,1111122' 
NDBC,ioos:station:NOAA.NDBC:SRST2:1,2014-08-01T20:00:00Z,29.6830,-94.0330,9.1,5.7,220.0,6.7,'1111122,1111122,1111122' 
NDBC,ioos:station:NOAA.NDBC:SRST2:1,2014-08-01T21:00:00Z,29.6830,-94.0330,9.1,7.7,230.0,9.8,'1111122,1111122,1111122' 
NDBC,ioos:station:NOAA.NDBC:SRST2:1,2014-08-01T22:00:00Z,29.6830,-94.0330,9.1,6.7,340.0,9.3,'1111122,1111122,1111122' 
NDBC,ioos:station:NOAA.NDBC:SRST2:1,2014-08-01T23:00:00Z,29.6830,-94.0330,9.1,4.6,320.0,5.7,'1111122,1111122,1111122' 
NDBC,ioos:station:NOAA.NDBC:SRST2:1,2014-08-02T00:00:00Z,29.6830,-94.0330,9.1,4.1,350.0,5.1,'1111122,1111122,1111122' 
NDBC,ioos:station:NOAA.NDBC:SRST2:1,2014-08-02T01:00:00Z,29.6830,-94.0330,9.1,3.1,330.0,3.1,'1111122,1111122,1111122' 
NDBC,ioos:station:NOAA.NDBC:SRST2:1,2014-08-02T02:00:00Z,29.6830,-94.0330,9.1,4.1,330.0,5.7,'1111122,1111122,1111122' 
NDBC,ioos:station:NOAA.NDBC:SRST2:1,2014-08-02T03:00:00Z,29.6830,-94.0330,9.1,5.7,360.0,7.2,'1111122,1111122,1111122' 
NDBC,ioos:station:NOAA.NDBC:SRST2:1,2014-08-02T04:00:00Z,29.6830,-94.0330,9.1,4.6,10.0,5.7,'1111122,1111122,1111122' 
NDBC,ioos:station:NOAA.NDBC:SRST2:1,2014-08-02T05:00:00Z,29.6830,-94.0330,9.1,4.1,360.0,5.1,'1111122,1111122,1111122' 
NDBC,ioos:station:NOAA.NDBC:SRST2:1,2014-08-02T06:00:00Z,29.6830,-94.0330,9.1,4.6,350.0,5.7,'1111122,1111122,1111122' 
NDBC,ioos:station:NOAA.NDBC:SRST2:1,2014-08-02T08:00:00Z,29.6830,-94.0330,9.1,3.1,330.0,3.6,'1111122,1111122,1111122' 
NDBC,ioos:station:NOAA.NDBC:SRST2:1,2014-08-02T09:00:00Z,29.6830,-94.0330,9.1,2.6,360.0,3.1,'1111122,1111122,1111122' 
NDBC,ioos:station:NOAA.NDBC:SRST2:1,2014-08-02T10:00:00Z,29.6830,-94.0330,9.1,2.1,330.0,2.6,'1111122,1111122,1111122' 
NDBC,ioos:station:NOAA.NDBC:SRST2:1,2014-08-02T12:00:00Z,29.6830,-94.0330,9.1,3.1,340.0,3.6,'1111122,1111122,1111122' 
NDBC,ioos:station:NOAA.NDBC:SRST2:1,2014-08-02T13:00:00Z,29.6830,-94.0330,9.1,3.6,350.0,4.1,'1111122,1111122,1111122' 
NDBC,ioos:station:NOAA.NDBC:SRST2:1,2014-08-02T14:00:00Z,29.6830,-94.0330,9.1,3.6,340.0,4.1,'1111122,1111122,1111122' 
NDBC,ioos:station:NOAA.NDBC:SRST2:1,2014-08-02T15:00:00Z,29.6830,-94.0330,9.1,2.1,360.0,2.6,'1111122,1111122,1111122' 
NDBC,ioos:station:NOAA.NDBC:SRST2:1,2014-08-02T16:00:00Z,29.6830,-94.0330,9.1,2.6,330.0,4.1,'1111122,1111122,1111122' 
NDBC,ioos:station:NOAA.NDBC:SRST2:1,2014-08-02T17:00:00Z,29.6830,-94.0330,9.1,2.6,350.0,3.6,'1111122,1111122,1111122' 
NDBC,ioos:station:NOAA.NDBC:SRST2:1,2014-08-02T18:00:00Z,29.6830,-94.0330,9.1,3.1,340.0,3.6,'1111122,1111122,1111122' 
NDBC,ioos:station:NOAA.NDBC:SRST2:1,2014-08-02T19:00:00Z,29.6830,-94.0330,9.1,4.6,330.0,5.7,'1111122,1111122,1111122' 
NDBC,ioos:station:NOAA.NDBC:SRST2:1,2014-08-02T20:00:00Z,29.6830,-94.0330,9.1,3.1,350.0,5.1,'1111122,1111122,1111122' 
NDBC,ioos:station:NOAA.NDBC:SRST2:1,2014-08-02T21:00:00Z,29.6830,-94.0330,9.1,4.1,320.0,5.1,'1111122,1111122,1111122' 
NDBC,ioos:station:NOAA.NDBC:SRST2:1,2014-08-02T22:00:00Z,29.6830,-94.0330,9.1,3.1,340.0,4.1,'1111122,1111122,1111122' 
NDBC,ioos:station:NOAA.NDBC:SRST2:1,2014-08-02T23:00:00Z,29.6830,-94.0330,9.1,3.1,330.0,5.1,'1111122,1111122,1111122' 
NDBC,ioos:station:NOAA.NDBC:SRST2:1,2014-08-03T00:00:00Z,29.6830,-94.0330,9.1,4.6,340.0,5.7,'1111122,1111122,1111122' 
NDBC,ioos:station:NOAA.NDBC:SRST2:1,2014-08-03T01:00:00Z,29.6830,-94.0330,9.1,3.1,340.0,4.1,'1111122,1111122,1111122' 
NDBC,ioos:station:NOAA.NDBC:SRST2:1,2014-08-03T02:00:00Z,29.6830,-94.0330,9.1,1.0,290.0,2.1,'1111122,1111122,1111122' 
NDBC,ioos:station:NOAA.NDBC:SRST2:1,2014-08-03T03:00:00Z,29.6830,-94.0330,9.1,2.1,320.0,2.1,'1111122,1111122,1111122' 
NDBC,ioos:station:NOAA.NDBC:SRST2:1,2014-08-03T04:00:00Z,29.6830,-94.0330,9.1,1.0,310.0,2.1,'1111122,1111122,1111122' 
NDBC,ioos:station:NOAA.NDBC:SRST2:1,2014-08-03T05:00:00Z,29.6830,-94.0330,9.1,2.1,350.0,2.6,'1111122,1111122,1111122' 
NDBC,ioos:station:NOAA.NDBC:SRST2:1,2014-08-03T07:00:00Z,29.6830,-94.0330,9.1,2.1,340.0,2.1,'1111122,1111122,1111122' 
NDBC,ioos:station:NOAA.NDBC:SRST2:1,2014-08-03T08:00:00Z,29.6830,-94.0330,9.1,3.1,350.0,4.1,'1111122,1111122,1111122' 
NDBC,ioos:station:NOAA.NDBC:SRST2:1,2014-08-03T09:00:00Z,29.6830,-94.0330,9.1,2.6,360.0,3.1,'1111122,1111122,1111122' 
NDBC,ioos:station:NOAA.NDBC:SRST2:1,2014-08-03T10:00:00Z,29.6830,-94.0330,9.1,2.6,350.0,3.1,'1111122,1111122,1111122' 
NDBC,ioos:station:NOAA.NDBC:SRST2:1,2014-08-03T11:00:00Z,29.6830,-94.0330,9.1,2.6,360.0,3.1,'1111122,1111122,1111122' 
NDBC,ioos:station:NOAA.NDBC:SRST2:1,2014-08-03T12:00:00Z,29.6830,-94.0330,9.1,2.6,360.0,2.6,'1111122,1111122,1111122' 
NDBC,ioos:station:NOAA.NDBC:SRST2:1,2014-08-03T13:00:00Z,29.6830,-94.0330,9.1,2.1,360.0,2.6,'1111122,1111122,1111122' 
NDBC,ioos:station:NOAA.NDBC:SRST2:1,2014-08-03T14:00:00Z,29.6830,-94.0330,9.1,2.6,360.0,3.1,'1111122,1111122,1111122' 
NDBC,ioos:station:NOAA.NDBC:SRST2:1,2014-08-03T15:00:00Z,29.6830,-94.0330,9.1,3.6,20.0,4.6,'1111122,1111122,1111122' 
NDBC,ioos:station:NOAA.NDBC:SRST2:1,2014-08-03T16:00:00Z,29.6830,-94.0330,9.1,2.6,10.0,3.1,'1111122,1111122,1111122' 
NDBC,ioos:station:NOAA.NDBC:SRST2:1,2014-08-03T17:00:00Z,29.6830,-94.0330,9.1,2.1,20.0,3.1,'1111122,1111122,1111122' 
NDBC,ioos:station:NOAA.NDBC:SRST2:1,2014-08-03T18:00:00Z,29.6830,-94.0330,9.1,0.0,-9999.0,1.0,'1114422,1111122,1111122' 
NDBC,ioos:station:NOAA.NDBC:SRST2:1,2014-08-03T19:00:00Z,29.6830,-94.0330,9.1,2.1,190.0,3.1,'1111122,1111122,1111122' 
NDBC,ioos:station:NOAA.NDBC:SRST2:1,2014-08-03T20:00:00Z,29.6830,-94.0330,9.1,3.1,170.0,4.1,'1111122,1111122,1111122' 
NDBC,ioos:station:NOAA.NDBC:SRST2:1,2014-08-03T21:00:00Z,29.6830,-94.0330,9.1,2.6,200.0,2.6,'1111122,1111122,1111122' 
NDBC,ioos:station:NOAA.NDBC:SRST2:1,2014-08-03T22:00:00Z,29.6830,-94.0330,9.1,3.6,180.0,4.1,'1111122,1111122,1111122' 
NDBC,ioos:station:NOAA.NDBC:SRST2:1,2014-08-03T23:00:00Z,29.6830,-94.0330,9.1,2.6,190.0,3.6,'1111122,1111122,1111122' 
NDBC,ioos:station:NOAA.NDBC:SRST2:1,2014-08-04T00:00:00Z,29.6830,-94.0330,9.1,2.1,200.0,2.1,'1111122,1111122,1111122' 
NDBC,ioos:station:NOAA.NDBC:SRST2:1,2014-08-04T02:00:00Z,29.6830,-94.0330,9.1,3.1,70.0,4.1,'1111122,1111122,1111122' 
NDBC,ioos:station:NOAA.NDBC:SRST2:1,2014-08-04T03:00:00Z,29.6830,-94.0330,9.1,3.1,80.0,4.1,'1111122,1111122,1111122' 
NDBC,ioos:station:NOAA.NDBC:SRST2:1,2014-08-04T04:00:00Z,29.6830,-94.0330,9.1,1.5,70.0,2.6,'1111122,1111122,1111122' 
NDBC,ioos:station:NOAA.NDBC:SRST2:1,2014-08-04T05:00:00Z,29.6830,-94.0330,9.1,1.5,70.0,2.6,'1111122,1111122,1111122' 
NDBC,ioos:station:NOAA.NDBC:SRST2:1,2014-08-04T07:00:00Z,29.6830,-94.0330,9.1,2.6,70.0,3.1,'1111122,1111122,1111122' 
NDBC,ioos:station:NOAA.NDBC:SRST2:1,2014-08-04T08:00:00Z,29.6830,-94.0330,9.1,3.6,150.0,4.6,'1111122,1111122,1111122' 
NDBC,ioos:station:NOAA.NDBC:SRST2:1,2014-08-04T09:00:00Z,29.6830,-94.0330,9.1,2.6,160.0,3.6,'1111122,1111122,1111122' 
NDBC,ioos:station:NOAA.NDBC:SRST2:1,2014-08-04T10:00:00Z,29.6830,-94.0330,9.1,3.6,180.0,4.1,'1111122,1111122,1111122' 
NDBC,ioos:station:NOAA.NDBC:SRST2:1,2014-08-04T11:00:00Z,29.6830,-94.0330,9.1,2.1,10.0,2.6,'1111122,1111122,1111122' 
NDBC,ioos:station:NOAA.NDBC:SRST2:1,2014-08-04T12:00:00Z,29.6830,-94.0330,9.1,2.6,40.0,3.1,'1111122,1111122,1111122' 
NDBC,ioos:station:NOAA.NDBC:SRST2:1,2014-08-04T13:00:00Z,29.6830,-94.0330,9.1,4.1,30.0,5.1,'1111122,1111122,1111122' 
NDBC,ioos:station:NOAA.NDBC:SRST2:1,2014-08-04T15:00:00Z,29.6830,-94.0330,9.1,3.1,50.0,4.1,'1111122,1111122,1111122' 
NDBC,ioos:station:NOAA.NDBC:SRST2:1,2014-08-04T16:00:00Z,29.6830,-94.0330,9.1,3.6,70.0,5.1,'1111122,1111122,1111122' 
NDBC,ioos:station:NOAA.NDBC:SRST2:1,2014-08-04T17:00:00Z,29.6830,-94.0330,9.1,6.2,110.0,6.7,'1111122,1111122,1111122' 
NDBC,ioos:station:NOAA.NDBC:SRST2:1,2014-08-04T18:00:00Z,29.6830,-94.0330,9.1,6.2,120.0,6.7,'1111122,1111122,1111122' 
NDBC,ioos:station:NOAA.NDBC:SRST2:1,2014-08-04T19:00:00Z,29.6830,-94.0330,9.1,5.1,120.0,6.7,'1111122,1111122,1111122' 
NDBC,ioos:station:NOAA.NDBC:SRST2:1,2014-08-04T20:00:00Z,29.6830,-94.0330,9.1,5.7,120.0,7.2,'1111122,1111122,1111122' 
NDBC,ioos:station:NOAA.NDBC:SRST2:1,2014-08-04T21:00:00Z,29.6830,-94.0330,9.1,5.7,130.0,6.7,'1111122,1111122,1111122' 
NDBC,ioos:station:NOAA.NDBC:SRST2:1,2014-08-04T22:00:00Z,29.6830,-94.0330,9.1,6.7,130.0,7.7,'1111122,1111122,1111122' 
NDBC,ioos:station:NOAA.NDBC:SRST2:1,2014-08-04T23:00:00Z,29.6830,-94.0330,9.1,4.1,140.0,5.7,'1111122,1111122,1111122' 
NDBC,ioos:station:NOAA.NDBC:SRST2:1,2014-08-05T00:00:00Z,29.6830,-94.0330,9.1,3.1,120.0,3.6,'1111122,1111122,1111122' 
NDBC,ioos:station:NOAA.NDBC:SRST2:1,2014-08-05T01:00:00Z,29.6830,-94.0330,9.1,3.6,110.0,4.1,'1111122,1111122,1111122' 
NDBC,ioos:station:NOAA.NDBC:SRST2:1,2014-08-05T02:00:00Z,29.6830,-94.0330,9.1,2.6,100.0,3.6,'1111122,1111122,1111122' 
NDBC,ioos:station:NOAA.NDBC:SRST2:1,2014-08-05T03:00:00Z,29.6830,-94.0330,9.1,4.1,120.0,5.7,'1111122,1111122,1111122' 
NDBC,ioos:station:NOAA.NDBC:SRST2:1,2014-08-05T04:00:00Z,29.6830,-94.0330,9.1,4.6,140.0,5.7,'1111122,1111122,1111122' 
NDBC,ioos:station:NOAA.NDBC:SRST2:1,2014-08-05T05:00:00Z,29.6830,-94.0330,9.1,3.6,150.0,4.6,'1111122,1111122,1111122' 
NDBC,ioos:station:NOAA.NDBC:SRST2:1,2014-08-05T07:00:00Z,29.6830,-94.0330,9.1,2.6,170.0,3.1,'1111122,1111122,1111122' 
NDBC,ioos:station:NOAA.NDBC:SRST2:1,2014-08-05T08:00:00Z,29.6830,-94.0330,9.1,2.1,150.0,2.6,'1111122,1111122,1111122' 
NDBC,ioos:station:NOAA.NDBC:SRST2:1,2014-08-05T09:00:00Z,29.6830,-94.0330,9.1,2.1,50.0,2.1,'1111122,1111122,1111122' 
NDBC,ioos:station:NOAA.NDBC:SRST2:1,2014-08-05T10:00:00Z,29.6830,-94.0330,9.1,2.1,70.0,2.6,'1111122,1111122,1111122' 
NDBC,ioos:station:NOAA.NDBC:SRST2:1,2014-08-05T11:00:00Z,29.6830,-94.0330,9.1,2.6,70.0,2.6,'1111122,1111122,1111122' 
NDBC,ioos:station:NOAA.NDBC:SRST2:1,2014-08-05T13:00:00Z,29.6830,-94.0330,9.1,2.1,60.0,2.6,'1111122,1111122,1111122' 
NDBC,ioos:station:NOAA.NDBC:SRST2:1,2014-08-05T14:00:00Z,29.6830,-94.0330,9.1,1.0,170.0,1.5,'1111122,1111122,1111122' 
NDBC,ioos:station:NOAA.NDBC:SRST2:1,2014-08-05T15:00:00Z,29.6830,-94.0330,9.1,2.6,120.0,3.1,'1111122,1111122,1111122' 
NDBC,ioos:station:NOAA.NDBC:SRST2:1,2014-08-05T16:00:00Z,29.6830,-94.0330,9.1,2.6,120.0,3.6,'1111122,1111122,1111122' 
NDBC,ioos:station:NOAA.NDBC:SRST2:1,2014-08-05T17:00:00Z,29.6830,-94.0330,9.1,4.1,140.0,5.1,'1111122,1111122,1111122' 
NDBC,ioos:station:NOAA.NDBC:SRST2:1,2014-08-05T18:00:00Z,29.6830,-94.0330,9.1,4.1,130.0,5.1,'1111122,1111122,1111122' 
NDBC,ioos:station:NOAA.NDBC:SRST2:1,2014-08-05T19:00:00Z,29.6830,-94.0330,9.1,3.6,150.0,4.6,'1111122,1111122,1111122' 
NDBC,ioos:station:NOAA.NDBC:SRST2:1,2014-08-05T20:00:00Z,29.6830,-94.0330,9.1,3.6,140.0,4.6,'1111122,1111122,1111122' 
NDBC,ioos:station:NOAA.NDBC:SRST2:1,2014-08-05T22:00:00Z,29.6830,-94.0330,9.1,3.1,160.0,4.1,'1111122,1111122,1111122' 
NDBC,ioos:station:NOAA.NDBC:SRST2:1,2014-08-05T23:00:00Z,29.6830,-94.0330,9.1,4.6,160.0,5.7,'1111122,1111122,1111122' 
NDBC,ioos:station:NOAA.NDBC:SRST2:1,2014-08-06T00:00:00Z,29.6830,-94.0330,9.1,4.6,160.0,5.7,'1111122,1111122,1111122' 
NDBC,ioos:station:NOAA.NDBC:SRST2:1,2014-08-06T01:00:00Z,29.6830,-94.0330,9.1,5.1,160.0,5.7,'1111122,1111122,1111122' 
NDBC,ioos:station:NOAA.NDBC:SRST2:1,2014-08-06T02:00:00Z,29.6830,-94.0330,9.1,3.6,160.0,4.6,'1111122,1111122,1111122' 
NDBC,ioos:station:NOAA.NDBC:SRST2:1,2014-08-06T04:00:00Z,29.6830,-94.0330,9.1,4.1,170.0,5.1,'1111122,1111122,1111122' 
NDBC,ioos:station:NOAA.NDBC:SRST2:1,2014-08-06T05:00:00Z,29.6830,-94.0330,9.1,4.1,180.0,4.6,'1111122,1111122,1111122' 
NDBC,ioos:station:NOAA.NDBC:SRST2:1,2014-08-06T07:00:00Z,29.6830,-94.0330,9.1,3.6,180.0,4.1,'1111122,1111122,1111122' 
NDBC,ioos:station:NOAA.NDBC:SRST2:1,2014-08-06T08:00:00Z,29.6830,-94.0330,9.1,3.1,190.0,3.6,'1111122,1111122,1111122' 
NDBC,ioos:station:NOAA.NDBC:SRST2:1,2014-08-06T09:00:00Z,29.6830,-94.0330,9.1,4.6,200.0,5.1,'1111122,1111122,1111122' 
NDBC,ioos:station:NOAA.NDBC:SRST2:1,2014-08-06T10:00:00Z,29.6830,-94.0330,9.1,4.1,190.0,4.6,'1111122,1111122,1111122' 
NDBC,ioos:station:NOAA.NDBC:SRST2:1,2014-08-06T11:00:00Z,29.6830,-94.0330,9.1,3.1,200.0,4.1,'1111122,1111122,1111122' 
NDBC,ioos:station:NOAA.NDBC:SRST2:1,2014-08-06T12:00:00Z,29.6830,-94.0330,9.1,2.1,190.0,2.6,'1111122,1111122,1111122' 
NDBC,ioos:station:NOAA.NDBC:SRST2:1,2014-08-06T13:00:00Z,29.6830,-94.0330,9.1,2.6,190.0,3.1,'1111122,1111122,1111122' 
NDBC,ioos:station:NOAA.NDBC:SRST2:1,2014-08-06T14:00:00Z,29.6830,-94.0330,9.1,2.6,170.0,3.1,'1111122,1111122,1111122' 
NDBC,ioos:station:NOAA.NDBC:SRST2:1,2014-08-06T15:00:00Z,29.6830,-94.0330,9.1,4.1,210.0,4.6,'1111122,1111122,1111122' 
NDBC,ioos:station:NOAA.NDBC:SRST2:1,2014-08-06T16:00:00Z,29.6830,-94.0330,9.1,4.1,190.0,4.6,'1111122,1111122,1111122' 
NDBC,ioos:station:NOAA.NDBC:SRST2:1,2014-08-06T17:00:00Z,29.6830,-94.0330,9.1,4.1,200.0,5.1,'1111122,1111122,1111122' 
NDBC,ioos:station:NOAA.NDBC:SRST2:1,2014-08-06T18:00:00Z,29.6830,-94.0330,9.1,4.1,190.0,4.6,'1111122,1111122,1111122' 
NDBC,ioos:station:NOAA.NDBC:SRST2:1,2014-08-06T19:00:00Z,29.6830,-94.0330,9.1,4.1,180.0,5.1,'1111122,1111122,1111122' 
NDBC,ioos:station:NOAA.NDBC:SRST2:1,2014-08-06T20:00:00Z,29.6830,-94.0330,9.1,4.6,180.0,5.7,'1111122,1111122,1111122' 
NDBC,ioos:station:NOAA.NDBC:SRST2:1,2014-08-06T21:00:00Z,29.6830,-94.0330,9.1,5.1,180.0,6.2,'1111122,1111122,1111122' 
NDBC,ioos:station:NOAA.NDBC:SRST2:1,2014-08-06T22:00:00Z,29.6830,-94.0330,9.1,5.1,200.0,6.2,'1111122,1111122,1111122' 
NDBC,ioos:station:NOAA.NDBC:SRST2:1,2014-08-06T23:00:00Z,29.6830,-94.0330,9.1,4.6,180.0,6.2,'1111122,1111122,1111122' 
NDBC,ioos:station:NOAA.NDBC:SRST2:1,2014-08-07T00:00:00Z,29.6830,-94.0330,9.1,4.1,180.0,5.7,'1111122,1111122,1111122' 
NDBC,ioos:station:NOAA.NDBC:SRST2:1,2014-08-07T01:00:00Z,29.6830,-94.0330,9.1,4.1,190.0,4.6,'1111122,1111122,1111122' 
NDBC,ioos:station:NOAA.NDBC:SRST2:1,2014-08-07T02:00:00Z,29.6830,-94.0330,9.1,4.6,180.0,5.1,'1111122,1111122,1111122' 
NDBC,ioos:station:NOAA.NDBC:SRST2:1,2014-08-07T03:00:00Z,29.6830,-94.0330,9.1,4.6,190.0,5.1,'1111122,1111122,1111122' 
NDBC,ioos:station:NOAA.NDBC:SRST2:1,2014-08-07T05:00:00Z,29.6830,-94.0330,9.1,5.7,180.0,6.7,'1111122,1111122,1111122' 
NDBC,ioos:station:NOAA.NDBC:SRST2:1,2014-08-07T07:00:00Z,29.6830,-94.0330,9.1,4.6,190.0,5.7,'1111122,1111122,1111122' 
NDBC,ioos:station:NOAA.NDBC:SRST2:1,2014-08-07T08:00:00Z,29.6830,-94.0330,9.1,4.1,200.0,5.7,'1111122,1111122,1111122' 
NDBC,ioos:station:NOAA.NDBC:SRST2:1,2014-08-07T09:00:00Z,29.6830,-94.0330,9.1,5.1,200.0,6.2,'1111122,1111122,1111122' 
NDBC,ioos:station:NOAA.NDBC:SRST2:1,2014-08-07T10:00:00Z,29.6830,-94.0330,9.1,5.7,200.0,7.2,'1111122,1111122,1111122' 
NDBC,ioos:station:NOAA.NDBC:SRST2:1,2014-08-07T11:00:00Z,29.6830,-94.0330,9.1,4.6,220.0,6.2,'1111122,1111122,1111122' 
NDBC,ioos:station:NOAA.NDBC:SRST2:1,2014-08-07T12:00:00Z,29.6830,-94.0330,9.1,5.1,230.0,6.2,'1111122,1111122,1111122' 
NDBC,ioos:station:NOAA.NDBC:SRST2:1,2014-08-07T13:00:00Z,29.6830,-94.0330,9.1,4.1,240.0,5.7,'1111122,1111122,1111122' 
NDBC,ioos:station:NOAA.NDBC:SRST2:1,2014-08-07T14:00:00Z,29.6830,-94.0330,9.1,4.1,230.0,5.1,'1111122,1111122,1111122' 
NDBC,ioos:station:NOAA.NDBC:SRST2:1,2014-08-07T15:00:00Z,29.6830,-94.0330,9.1,4.1,220.0,5.1,'1111122,1111122,1111122' 
NDBC,ioos:station:NOAA.NDBC:SRST2:1,2014-08-07T16:00:00Z,29.6830,-94.0330,9.1,5.7,240.0,7.2,'1111122,1111122,1111122' 
NDBC,ioos:station:NOAA.NDBC:SRST2:1,2014-08-07T17:00:00Z,29.6830,-94.0330,9.1,4.1,220.0,5.7,'1111122,1111122,1111122' 
NDBC,ioos:station:NOAA.NDBC:SRST2:1,2014-08-07T18:00:00Z,29.6830,-94.0330,9.1,4.6,200.0,5.1,'1111122,1111122,1111122' 
NDBC,ioos:station:NOAA.NDBC:SRST2:1,2014-08-07T19:00:00Z,29.6830,-94.0330,9.1,6.2,210.0,6.7,'1111122,1111122,1111122' 
NDBC,ioos:station:NOAA.NDBC:SRST2:1,2014-08-07T20:00:00Z,29.6830,-94.0330,9.1,5.1,210.0,6.7,'1111122,1111122,1111122' 
NDBC,ioos:station:NOAA.NDBC:SRST2:1,2014-08-07T21:00:00Z,29.6830,-94.0330,9.1,6.7,200.0,7.7,'1111122,1111122,1111122' 
NDBC,ioos:station:NOAA.NDBC:SRST2:1,2014-08-07T22:00:00Z,29.6830,-94.0330,9.1,6.7,210.0,7.7,'1111122,1111122,1111122' 
NDBC,ioos:station:NOAA.NDBC:SRST2:1,2014-08-07T23:00:00Z,29.6830,-94.0330,9.1,6.2,200.0,7.2,'1111122,1111122,1111122' 
NDBC,ioos:station:NOAA.NDBC:SRST2:1,2014-08-08T00:00:00Z,29.6830,-94.0330,9.1,5.1,210.0,6.2,'1111122,1111122,1111122' 
NDBC,ioos:station:NOAA.NDBC:SRST2:1,2014-08-08T01:00:00Z,29.6830,-94.0330,9.1,5.1,200.0,6.7,'1111122,1111122,1111122' 
NDBC,ioos:station:NOAA.NDBC:SRST2:1,2014-08-08T02:00:00Z,29.6830,-94.0330,9.1,5.1,190.0,7.2,'1111122,1111122,1111122' 
NDBC,ioos:station:NOAA.NDBC:SRST2:1,2014-08-08T03:00:00Z,29.6830,-94.0330,9.1,6.7,200.0,7.7,'1111122,1111122,1111122' 
NDBC,ioos:station:NOAA.NDBC:SRST2:1,2014-08-08T04:00:00Z,29.6830,-94.0330,9.1,6.2,190.0,7.7,'1111122,1111122,1111122' 
NDBC,ioos:station:NOAA.NDBC:SRST2:1,2014-08-08T05:00:00Z,29.6830,-94.0330,9.1,6.2,190.0,8.2,'1111122,1111122,1111122' 
NDBC,ioos:station:NOAA.NDBC:SRST2:1,2014-08-08T07:00:00Z,29.6830,-94.0330,9.1,6.7,200.0,7.7,'1111122,1111122,1111122' 
NDBC,ioos:station:NOAA.NDBC:SRST2:1,2014-08-08T08:00:00Z,29.6830,-94.0330,9.1,6.7,210.0,8.8,'1111122,1111122,1111122' 
NDBC,ioos:station:NOAA.NDBC:SRST2:1,2014-08-08T09:00:00Z,29.6830,-94.0330,9.1,6.2,200.0,7.7,'1111122,1111122,1111122' 
NDBC,ioos:station:NOAA.NDBC:SRST2:1,2014-08-08T10:00:00Z,29.6830,-94.0330,9.1,5.7,210.0,7.2,'1111122,1111122,1111122' 
NDBC,ioos:station:NOAA.NDBC:SRST2:1,2014-08-08T11:00:00Z,29.6830,-94.0330,9.1,5.1,220.0,6.7,'1111122,1111122,1111122' 
NDBC,ioos:station:NOAA.NDBC:SRST2:1,2014-08-08T12:00:00Z,29.6830,-94.0330,9.1,4.1,220.0,4.6,'1111122,1111122,1111122' 
NDBC,ioos:station:NOAA.NDBC:SRST2:1,2014-08-08T13:00:00Z,29.6830,-94.0330,9.1,4.6,210.0,5.7,'1111122,1111122,1111122' 
NDBC,ioos:station:NOAA.NDBC:SRST2:1,2014-08-08T14:00:00Z,29.6830,-94.0330,9.1,5.1,220.0,6.2,'1111122,1111122,1111122' 
NDBC,ioos:station:NOAA.NDBC:SRST2:1,2014-08-08T15:00:00Z,29.6830,-94.0330,9.1,5.1,220.0,6.2,'1111122,1111122,1111122' 
NDBC,ioos:station:NOAA.NDBC:SRST2:1,2014-08-08T16:00:00Z,29.6830,-94.0330,9.1,5.7,210.0,7.2,'1111122,1111122,1111122' 
NDBC,ioos:station:NOAA.NDBC:SRST2:1,2014-08-08T17:00:00Z,29.6830,-94.0330,9.1,6.2,210.0,6.7,'1111122,1111122,1111122' 
NDBC,ioos:station:NOAA.NDBC:SRST2:1,2014-08-08T18:00:00Z,29.6830,-94.0330,9.1,6.2,210.0,7.7,'1111122,1111122,1111122' 
NDBC,ioos:station:NOAA.NDBC:SRST2:1,2014-08-08T20:00:00Z,29.6830,-94.0330,9.1,5.7,200.0,6.7,'1111122,1111122,1111122' 
NDBC,ioos:station:NOAA.NDBC:SRST2:1,2014-08-08T21:00:00Z,29.6830,-94.0330,9.1,4.6,200.0,6.2,'1111122,1111122,1111122' 
NDBC,ioos:station:NOAA.NDBC:SRST2:1,2014-08-08T22:00:00Z,29.6830,-94.0330,9.1,4.6,190.0,5.1,'1111122,1111122,1111122' 
NDBC,ioos:station:NOAA.NDBC:SRST2:1,2014-08-08T23:00:00Z,29.6830,-94.0330,9.1,5.1,190.0,6.7,'1111122,1111122,1111122' 
NDBC,ioos:station:NOAA.NDBC:SRST2:1,2014-08-09T00:00:00Z,29.6830,-94.0330,9.1,6.2,190.0,7.7,'1111122,1111122,1111122' 
NDBC,ioos:station:NOAA.NDBC:SRST2:1,2014-08-09T01:00:00Z,29.6830,-94.0330,9.1,6.2,200.0,7.2,'1111122,1111122,1111122' 
NDBC,ioos:station:NOAA.NDBC:SRST2:1,2014-08-09T02:00:00Z,29.6830,-94.0330,9.1,5.1,200.0,6.7,'1111122,1111122,1111122' 
NDBC,ioos:station:NOAA.NDBC:SRST2:1,2014-08-09T03:00:00Z,29.6830,-94.0330,9.1,5.1,200.0,6.7,'1111122,1111122,1111122' 
NDBC,ioos:station:NOAA.NDBC:SRST2:1,2014-08-09T04:00:00Z,29.6830,-94.0330,9.1,3.6,200.0,5.1,'1111122,1111122,1111122' 
NDBC,ioos:station:NOAA.NDBC:SRST2:1,2014-08-09T05:00:00Z,29.6830,-94.0330,9.1,3.6,200.0,4.6,'1111122,1111122,1111122' 
NDBC,ioos:station:NOAA.NDBC:SRST2:1,2014-08-09T06:00:00Z,29.6830,-94.0330,9.1,4.6,200.0,5.7,'1111122,1111122,1111122' 
NDBC,ioos:station:NOAA.NDBC:SRST2:1,2014-08-09T07:00:00Z,29.6830,-94.0330,9.1,4.6,200.0,6.2,'1111122,1111122,1111122' 
NDBC,ioos:station:NOAA.NDBC:SRST2:1,2014-08-09T08:00:00Z,29.6830,-94.0330,9.1,4.6,210.0,5.7,'1111122,1111122,1111122' 
NDBC,ioos:station:NOAA.NDBC:SRST2:1,2014-08-09T09:00:00Z,29.6830,-94.0330,9.1,4.1,200.0,4.6,'1111122,1111122,1111122' 
NDBC,ioos:station:NOAA.NDBC:SRST2:1,2014-08-09T10:00:00Z,29.6830,-94.0330,9.1,4.1,200.0,6.2,'1111122,1111122,1111122' 
NDBC,ioos:station:NOAA.NDBC:SRST2:1,2014-08-09T11:00:00Z,29.6830,-94.0330,9.1,3.6,220.0,4.6,'1111122,1111122,1111122' 
NDBC,ioos:station:NOAA.NDBC:SRST2:1,2014-08-09T12:00:00Z,29.6830,-94.0330,9.1,3.6,220.0,4.1,'1111122,1111122,1111122' 
NDBC,ioos:station:NOAA.NDBC:SRST2:1,2014-08-09T13:00:00Z,29.6830,-94.0330,9.1,1.0,280.0,1.5,'1111122,1111122,1111122' 
NDBC,ioos:station:NOAA.NDBC:SRST2:1,2014-08-09T14:00:00Z,29.6830,-94.0330,9.1,2.6,210.0,3.1,'1111122,1111122,1111122' 
NDBC,ioos:station:NOAA.NDBC:SRST2:1,2014-08-09T15:00:00Z,29.6830,-94.0330,9.1,4.6,230.0,5.7,'1111122,1111122,1111122' 
NDBC,ioos:station:NOAA.NDBC:SRST2:1,2014-08-09T16:00:00Z,29.6830,-94.0330,9.1,4.6,230.0,5.7,'1111122,1111122,1111122' 
NDBC,ioos:station:NOAA.NDBC:SRST2:1,2014-08-09T17:00:00Z,29.6830,-94.0330,9.1,5.1,210.0,5.7,'1111122,1111122,1111122' 
NDBC,ioos:station:NOAA.NDBC:SRST2:1,2014-08-09T19:00:00Z,29.6830,-94.0330,9.1,5.7,210.0,6.7,'1111122,1111122,1111122' 
NDBC,ioos:station:NOAA.NDBC:SRST2:1,2014-08-09T20:00:00Z,29.6830,-94.0330,9.1,5.7,220.0,7.2,'1111122,1111122,1111122' 
NDBC,ioos:station:NOAA.NDBC:SRST2:1,2014-08-09T21:00:00Z,29.6830,-94.0330,9.1,6.2,200.0,7.2,'1111122,1111122,1111122' 
NDBC,ioos:station:NOAA.NDBC:SRST2:1,2014-08-09T22:00:00Z,29.6830,-94.0330,9.1,5.1,210.0,6.2,'1111122,1111122,1111122' 
NDBC,ioos:station:NOAA.NDBC:SRST2:1,2014-08-09T23:00:00Z,29.6830,-94.0330,9.1,4.6,200.0,5.7,'1111122,1111122,1111122' 
NDBC,ioos:station:NOAA.NDBC:SRST2:1,2014-08-10T00:00:00Z,29.6830,-94.0330,9.1,4.1,190.0,5.1,'1111122,1111122,1111122' 